FREGAT DEB, 46524

Orbit data source: Space-Track

FREGAT DEB, 46524 is space debris in LEO originally from a launch on Mon, 18 Jul 2011 UTC launched from the Tyuratam Missile And Space Complex (TTMTR). Debris objects in space refer to the collection of defunct objects orbiting the Earth. Examples of debris include non-operational satellites, rocket bodies, and fragments generated from explosions, collisions, or faulty payload assembly.

Loading next visibility...
Identifier
46524, 2011-037MC
Orbit
LEO
Country
Flag of CISCIS
Related business
Manufacturer
Lavochkin
Mission
Spacecraft
Bus & Motor
Unknown
Mass
Unknown
Launch date (UTC)
2011-07-18 (14 years ago)
Launch vehicle
Unknown
Launch site
Tyuratam Missile And Space Complex (TTMTR)
Object type
Payload
Rocket body
Debris
Shape & HBR
Unknown shape, 0.1 m
Radar Cross Section
Small (<0.1 m²)

Expand to show TLE details & history
Last TLE update: 1 week ago

TLE from 1 week ago
0 FREGAT DEB
1 46524U 11037MC  25282.51602251  .00000164  00000-0  57073-3 0  9990
2 46524  51.6299  98.1533 1826973 310.8694  34.7240 10.60753218198653
Epoch: 2025-10-09T12:23Z
TLE epoch observation values (Epoch: 2025-10-09T12:23:04.344Z)
Latitude
-0.00005°
Longitude
-105.98994°
Altitude
1,178.502 km
Speed
7.744 km/s
True Right ascension
06h 32m 36s
True Declination
0° 00' 00"
Sunlit
Object was in daylight at epoch
Visualization orbit readout
Latitude
Unknown
Longitude
Unknown
Altitude
Unknown
Speed
Unknown
Apparent Right ascension
Unknown
Apparent Declination
Unknown
Sunlit
N/A
Visualization observer readout
Local Sidereal Time
11:15:34
Azimuth
Unknown
Elevation
Unknown
Doppler factor
Unknown
Orbital elements
Apogee altitude
3,970.583 km
Perigee altitude
773.344 km
Semi-major axis
8,750.1 km
Eccentricity
0.1827
Inclination
51.6299°
RAAN
98.1533°
Arg. of periapsis
310.8694°
True anomaly
49.21395°
Mean anomaly
34.724°
Eccentric anomaly
41.68551°
Mean motion
2.6517 °/min
Orbital period
135.76 mins
BSTAR
0.00057073
Loading maneuver chart data...
Computing Atmospheric mass density...
Loading historical data...
Loading historical data...
Loading historical data...
Loading historical data...
Loading historical data...
Loading historical data...
Loading historical data...

Documentation

Showing up to 5 results
|